1504566001.09,20259,15.94,73706.5,-2.91,-3.67,-3.67,0,*56
1504566002.36,20260,15.94,73708.0,-2.89,-3.63,-3.55,0,*50
1504566003.62,20261,15.94,73710.0,-2.89,-3.55,-3.63,0,*51
1504566004.86,20262,15.94,73714.0,-2.87,-3.63,-3.63,0,*59
1504566006.11,20263,15.94,73714.3,-2.87,-3.63,-3.63,0,*58
1504566007.37,20264,15.94,73706.8,-2.89,-3.67,-3.67,0,*51
1504566008.64,20265,15.94,73714.0,-2.89,-3.63,-3.67,0,*54
1504566009.91,20266,15.94,73718.8,-2.89,-3.63,-3.63,0,*53
1504566011.17,20267,15.94,73708.8,-2.89,-3.63,-3.63,0,*52
1504566012.44,20268,15.88,73710.0,-2.89,-3.63,-3.63,0,*5D
1504566013.71,20269,15.94,73724.8,-2.89,-3.63,-3.63,0,*5C
1504566014.97,20270,15.94,73722.0,-2.89,-3.67,-3.67,0,*54
1504566016.19,20271,15.94,73720.0,-2.87,-3.71,-3.79,0,*53
1504566017.4,20272,15.94,73718.8,-2.87,-3.79,-3.79,0,*58
1504566018.63,20273,15.94,73716.8,-2.89,-3.79,-3.83,0,*52
1504566019.86,20274,15.94,73710.8,-2.89,-3.83,-3.91,0,*53
1504566021.09,20275,15.94,73718.8,-2.89,-3.83,-4.05,0,*58
1504566022.3,20276,15.94,73708.3,-2.87,-3.91,-4.05,0,*56
1504566023.49,20277,15.94,73710.3,-2.87,-4.09,-4.17,0,*52
1504566024.71,20278,15.94,73718.0,-2.89,-4.05,-4.17,0,*5F
1504566025.92,20279,15.94,73716.0,-2.89,-4.17,-4.17,0,*5D
1504566027.13,20280,15.94,73706.3,-2.87,-4.33,-4.33,0,*55
1504566028.35,20281,15.94,73696.0,-2.89,-4.29,-4.21,0,*52
1504566029.55,20282,15.94,73694.5,-2.87,-4.09,-4.09,0,*57
1504566030.78,20283,15.94,73688.8,-2.89,-3.83,-3.95,0,*5F
1504566032.01,20284,15.94,73688.0,-2.89,-3.79,-3.95,0,*5D
1504566033.23,20285,15.94,73718.5,-2.89,-3.95,-4.33,0,*55
1504566034.44,20286,15.94,73718.3,-2.87,-4.21,-4.57,0,*52
1504566035.65,20287,15.94,73710.5,-2.87,-4.17,-4.53,0,*52
1504566036.85,20288,15.94,73706.0,-2.87,-4.17,-4.57,0,*59
1504566038.08,20289,15.94,73716.8,-2.87,-4.21,-4.85,0,*52
1504566039.31,20290,15.94,73718.8,-2.87,-4.61,-5.85,0,*5F
1504566040.54,20291,15.94,73704.8,-2.87,-6.09,-7.61,0,*5A
1504566041.77,20292,15.94,73692.3,-2.87,-6.55,-7.43,0,*50
1504566043.0,20293,15.94,73680.5,-2.89,-6.51,-6.81,0,*54
1504566044.2,20294,15.94,73674.3,-2.87,-6.43,-6.01,0,*56
1504566045.45,20295,15.94,73680.5,-2.87,-5.77,-5.85,0,*5C
1504566046.65,20296,15.94,73682.0,-2.87,-5.35,-5.97,0,*5A
1504566047.87,20297,15.94,73706.5,-2.89,-5.47,-6.77,0,*5D
1504566049.1,20298,15.88,73690.8,-2.87,-6.13,-9.11,0,*51
1504566050.29,20299,15.94,73690.5,-2.87,-7.49,-8.17,0,*59
1504566051.54,20300,15.94,73694.0,-2.87,-7.61,-7.43,0,*5C
1504566052.76,20301,15.94,73698.8,-2.89,-6.89,-6.89,0,*53
1504566054.03,20302,15.94,73692.5,-2.89,-7.31,-7.05,0,*57
1504566055.3,20303,15.94,73676.3,-2.89,-7.35,-6.63,0,*53
1504566056.51,20304,15.88,73682.8,-2.89,-6.69,-6.01,0,*58
1504566057.76,20305,15.94,73712.5,-2.87,-7.01,-7.31,0,*5A
1504566058.98,20306,15.94,73716.0,-2.89,-8.85,-8.67,0,*58
1504566060.23,20307,15.94,73694.8,-2.89,-9.75,-7.99,0,*59
1504566061.51,20308,15.94,73700.0,-2.89,-9.11,-7.43,0,*53
1504566062.76,20309,15.94,73698.0,-2.89,-9.31,-7.43,0,*50
1504566064.03,20310,15.94,73704.8,-2.89,-9.57,-7.31,0,*5D
1504566065.25,20311,15.88,73700.5,-2.89,-9.67,-7.23,0,*5C
1504566066.47,20312,15.94,73710.0,-2.89,-9.67,-6.89,0,*5E
1504566067.69,20313,15.94,73714.5,-2.89,-8.67,-6.43,0,*58
1504566068.97,20314,15.94,73706.5,-2.89,-7.31,-5.85,0,*5A
1504566070.17,20315,15.94,73700.8,-2.91,-6.31,-5.55,0,*5E
1504566071.4,20316,15.94,73706.8,-2.91,-6.47,-6.19,0,*57
1504566072.6,20317,15.88,73698.0,-2.95,-6.69,-6.43,0,*51
1504566073.8,20318,15.94,73692.0,-2.91,-6.55,-7.11,0,*53
1504566075.02,20319,15.94,73700.3,-2.91,-7.27,-7.53,0,*50
1504566076.28,20320,15.94,73684.5,-2.95,-8.07,-6.93,0,*5E
1504566077.5,20321,15.94,73678.5,-2.95,-7.35,-6.13,0,*59
1504566078.7,20322,15.94,73678.5,-2.95,-6.35,-6.01,0,*58
1504566079.92,20323,15.94,73688.5,-2.91,-7.39,-6.85,0,*5C
1504566081.16,20324,15.94,73684.8,-2.91,-7.27,-5.77,0,*5A
1504566082.39,20325,15.94,73664.0,-2.95,-6.55,-5.65,0,*58
1504566083.61,20326,15.94,73638.3,-2.95,-5.77,-5.43,0,*5C
1504566084.81,20327,15.94,73664.5,-2.95,-5.35,-5.35,0,*5A
1504566086.01,20328,15.88,73678.0,-2.91,-5.35,-5.43,0,*50
1504566087.21,20329,15.94,73688.0,-2.95,-5.55,-6.05,0,*52
1504566088.43,20330,15.94,73704.3,-2.95,-6.01,-7.05,0,*59
1504566089.66,20331,15.94,73698.3,-2.95,-6.43,-7.61,0,*5C
1504566090.88,20332,15.94,73684.8,-2.95,-6.85,-7.91,0,*5A
1504566092.1,20333,15.94,73690.5,-2.95,-6.59,-7.91,0,*5A
1504566093.33,20334,15.94,73694.5,-2.91,-6.59,-7.95,0,*5D
1504566094.53,20335,15.94,73692.8,-2.91,-6.85,-8.17,0,*58
1504566095.73,20336,15.94,73694.8,-2.91,-7.87,-9.27,0,*5A
1504566096.96,20337,15.88,73682.5,-2.91,-8.89,-9.37,0,*5B
1504566098.17,20338,15.94,73690.3,-2.91,-8.89,-8.97,0,*5F
1504566099.37,20339,15.94,73688.5,-2.95,-9.71,-9.79,0,*5D
1504566100.63,20340,15.94,73688.3,-2.95,-10.63,-9.83,0,*6D
1504566101.89,20341,15.94,73692.3,-2.95,-10.63,-9.83,0,*6C
1504566103.11,20342,15.94,73690.5,-2.95,-11.41,-10.19,0,*55
1504566104.36,20343,15.88,73682.0,-2.95,-12.11,-9.83,0,*69
1504566105.59,20344,15.94,73688.0,-2.95,-12.11,-9.23,0,*64
1504566106.79,20345,15.88,73684.8,-2.95,-10.57,-8.67,0,*64
1504566107.98,20346,15.94,73692.3,-2.95,-10.09,-8.71,0,*6B
1504566109.17,20347,15.94,73692.0,-2.95,-10.05,-8.97,0,*6E
1504566110.39,20348,15.94,73690.3,-2.97,-10.01,-8.71,0,*6F
1504566111.58,20349,15.94,73688.5,-2.99,-9.89,-9.01,0,*5E
1504566112.79,20350,15.94,73688.5,-2.99,-10.15,-9.01,0,*6B
1504566114.01,20351,15.94,73692.8,-2.97,-9.19,-8.63,0,*55
1504566115.22,20352,15.94,73692.8,-2.99,-10.35,-9.01,0,*6B
1504566116.42,20353,15.94,73690.8,-2.99,-10.35,-8.59,0,*66
1504566117.62,20354,15.94,73692.0,-2.99,-9.97,-8.21,0,*5E
1504566118.83,20355,15.94,73696.5,-2.99,-9.57,-7.83,0,*54
1504566120.08,20356,15.88,73694.3,-2.99,-9.53,-7.91,0,*50
1504566121.3,20357,15.94,73688.5,-2.99,-8.45,-7.65,0,*5C
1504566122.58,20358,15.94,73686.8,-3.01,-7.99,-7.61,0,*59
1504566123.84,20359,15.94,73684.8,-3.03,-7.73,-7.57,0,*5B
1504566125.09,20360,15.88,73686.5,-3.01,-7.87,-7.61,0,*5D
1504566126.32,20361,15.94,73680.0,-3.03,-8.11,-7.49,0,*54
1504566127.59,20362,15.88,73678.3,-3.01,-7.69,-6.93,0,*53
1504566128.84,20363,15.94,73686.5,-3.01,-7.01,-6.39,0,*5C
1504566130.04,20364,15.88,73686.8,-3.03,-6.77,-6.13,0,*51
1504566131.31,20365,15.94,73688.5,-3.01,-6.93,-6.27,0,*5F
1504566132.54,20366,15.88,73668.3,-3.01,-6.89,-6.09,0,*5B
1504566133.79,20367,15.94,73684.0,-3.01,-6.43,-5.65,0,*55
1504566135.02,20368,15.94,73678.5,-3.01,-6.43,-5.51,0,*5D
1504566136.27,20369,15.94,73680.3,-3.03,-6.27,-5.61,0,*5F
1504566137.49,20370,15.88,73682.8,-3.03,-6.23,-5.43,0,*53
1504566138.74,20371,15.88,73690.3,-3.01,-5.89,-5.43,0,*53
1504566139.99,20372,15.94,73690.0,-3.03,-5.77,-5.65,0,*57
1504566141.26,20373,15.94,73690.3,-3.01,-5.61,-5.65,0,*53
1504566142.47,20374,15.88,73676.0,-3.03,-5.47,-5.51,0,*55
1504566143.67,20375,15.88,73666.0,-3.03,-5.47,-5.47,0,*53
1504566144.92,20376,15.94,73678.5,-3.01,-5.65,-5.51,0,*55
1504566146.17,20377,15.94,73682.0,-3.01,-5.77,-5.47,0,*50
1504566147.42,20378,15.88,73674.8,-3.01,-5.61,-5.43,0,*5C
1504566148.67,20379,15.88,73674.5,-3.01,-5.73,-5.35,0,*5F
1504566149.86,20380,15.94,73696.8,-3.03,-5.43,-5.35,0,*58
1504566151.11,20381,15.94,73696.5,-3.01,-5.35,-5.61,0,*5B
1504566152.33,20382,15.94,73690.0,-2.99,-5.43,-5.69,0,*51
1504566153.58,20383,15.94,73692.8,-3.01,-5.61,-5.97,0,*51
1504566154.83,20384,15.88,73688.3,-3.01,-5.89,-6.01,0,*5C
1504566156.05,20385,15.94,73688.5,-3.01,-6.09,-5.97,0,*5A
1504566157.31,20386,15.94,73692.3,-3.01,-6.39,-5.85,0,*59
1504566158.58,20387,15.94,73686.5,-3.01,-6.93,-5.73,0,*51
1504566159.83,20388,15.94,73688.8,-3.01,-6.89,-5.65,0,*52
1504566161.11,20389,15.94,73682.3,-3.01,-7.05,-5.85,0,*58
1504566162.33,20390,15.94,73686.5,-3.01,-7.15,-6.09,0,*56
1504566163.53,20391,15.94,73682.8,-2.99,-6.73,-6.09,0,*56
1504566164.77,20392,15.88,73678.3,-2.99,-6.63,-6.23,0,*5C
1504566166.0,20393,15.94,73682.5,-2.99,-7.11,-6.63,0,*5D
1504566167.23,20394,15.94,73684.3,-2.99,-7.19,-6.63,0,*52
1504566168.45,20395,15.94,73680.3,-2.99,-7.01,-6.51,0,*5B
1504566169.68,20396,15.94,73682.0,-2.99,-6.97,-6.35,0,*54
1504566170.92,20397,15.94,73678.8,-2.99,-7.01,-5.73,0,*5A
1504566172.17,20398,15.94,73678.3,-2.99,-7.31,-5.85,0,*5F
1504566173.37,20399,15.94,73678.5,-2.99,-6.73,-5.43,0,*53
1504566174.59,20400,15.94,73680.3,-3.01,-6.01,-4.99,0,*57
1504566175.82,20401,15.94,73684.5,-2.99,-5.39,-4.69,0,*51
1504566177.05,20402,15.94,73682.0,-2.99,-5.15,-4.53,0,*55
1504566178.27,20403,15.94,73684.0,-2.99,-4.89,-4.61,0,*51
1504566179.49,20404,15.94,73688.3,-2.99,-4.77,-4.49,0,*5D
1504566180.68,20405,15.94,73688.8,-2.99,-4.65,-4.49,0,*5F
1504566181.88,20406,15.94,73686.0,-2.99,-4.53,-4.49,0,*59
1504566183.07,20407,15.94,73680.3,-2.99,-4.53,-4.49,0,*58
1504566184.27,20408,15.94,73686.5,-2.99,-4.53,-4.61,0,*5D
1504566185.49,20409,15.94,73690.0,-2.99,-4.53,-4.81,0,*52
1504566186.76,20410,15.94,73690.5,-2.97,-4.69,-5.07,0,*52
1504566188.01,20411,15.94,73690.3,-2.97,-4.89,-5.39,0,*50
1504566189.23,20412,15.88,73690.8,-2.99,-5.15,-5.97,0,*5D
1504566190.48,20413,15.94,73694.3,-2.97,-5.55,-7.31,0,*58
1504566191.69,20414,15.94,73694.3,-2.99,-6.63,-8.63,0,*5F
1504566192.97,20415,15.88,73692.3,-2.97,-8.07,-9.53,0,*5E
1504566194.2,20416,15.94,73698.3,-2.99,-9.41,-10.09,0,*67
1504566195.43,20417,15.94,73694.5,-2.97,-10.85,-10.85,0,*5C
1504566196.69,20418,15.94,73690.5,-2.97,-10.71,-10.01,0,*54
1504566197.92,20419,15.94,73696.8,-2.99,-10.49,-9.45,0,*68
1504566199.15,20420,15.88,73682.3,-2.97,-10.15,-9.75,0,*66
1504566200.35,20421,15.88,73690.5,-2.99,-11.19,-9.75,0,*64
1504566201.58,20422,15.94,73688.5,-2.97,-12.21,-9.19,0,*6B
1504566202.79,20423,15.88,73694.3,-2.99,-12.39,-9.01,0,*64
1504566204.04,20424,15.94,73692.0,-2.99,-12.79,-8.51,0,*63
1504566205.25,20425,15.88,73688.8,-2.99,-12.21,-7.53,0,*62
1504566206.45,20426,15.94,73688.0,-2.99,-10.35,-6.39,0,*6B
1504566207.7,20427,15.94,73692.0,-2.97,-8.59,-5.85,0,*53
1504566208.93,20428,15.94,73692.3,-2.99,-6.97,-5.39,0,*59
1504566210.19,20429,15.94,73694.8,-2.99,-6.19,-5.07,0,*53
1504566211.43,20430,15.88,73702.5,-2.99,-5.27,-4.77,0,*53
1504566212.71,20431,15.94,73704.3,-3.01,-5.07,-4.73,0,*54
1504566213.96,20432,15.88,73694.8,-3.01,-4.85,-4.65,0,*5B
1504566215.23,20433,15.88,73692.8,-3.01,-4.69,-4.69,0,*54
1504566216.48,20434,15.94,73692.0,-3.01,-4.57,-4.81,0,*58
1504566217.73,20435,15.94,73692.3,-3.03,-4.73,-4.69,0,*5B
1504566218.98,20436,15.88,73692.8,-3.01,-4.73,-4.65,0,*56
1504566220.22,20437,15.88,73686.5,-3.01,-4.81,-4.57,0,*5B
1504566221.47,20438,15.88,73684.5,-3.01,-4.73,-4.53,0,*5D
1504566222.7,20439,15.88,73694.0,-3.01,-4.57,-4.33,0,*5C
1504566223.93,20440,15.94,73692.8,-3.01,-4.53,-4.21,0,*55
1504566225.14,20441,15.88,73702.5,-3.01,-4.45,-4.41,0,*55
1504566226.4,20442,15.94,73704.3,-3.01,-5.23,-4.53,0,*54
1504566227.62,20443,15.94,73702.5,-2.99,-5.27,-4.49,0,*5A
1504566228.85,20444,15.88,73700.3,-2.99,-5.07,-4.29,0,*59
1504566230.07,20445,15.88,73702.5,-2.99,-4.77,-4.25,0,*52
1504566231.26,20446,15.94,73702.5,-2.99,-4.65,-4.17,0,*53
1504566232.45,20447,15.94,73708.0,-2.99,-4.49,-4.05,0,*5F
1504566233.68,20448,15.94,73700.8,-2.97,-4.29,-3.91,0,*52
1504566234.87,20449,15.94,73706.3,-2.99,-4.13,-3.87,0,*53
1504566236.12,20450,15.88,73704.8,-2.97,-4.05,-4.01,0,*5B
1504566237.34,20451,15.94,73706.3,-2.99,-4.05,-4.01,0,*54
1504566238.57,20452,15.88,73704.5,-2.95,-4.01,-3.95,0,*55
1504566239.85,20453,15.88,73702.3,-2.97,-4.01,-4.01,0,*5C
1504566241.12,20454,15.88,73706.3,-2.97,-4.01,-4.01,0,*5B
1504566242.35,20455,15.88,73706.3,-2.97,-4.13,-4.13,0,*5A
1504566243.57,20456,15.88,73708.3,-2.97,-4.13,-4.25,0,*5C
1504566244.77,20457,15.94,73708.3,-2.99,-4.17,-4.29,0,*5B
1504566246.0,20458,15.94,73708.5,-2.97,-4.25,-4.37,0,*54
1504566247.22,20459,15.94,73708.3,-2.97,-4.29,-4.49,0,*50
1504566248.44,20460,15.88,73710.0,-2.97,-4.41,-4.41,0,*5C
1504566249.66,20461,15.88,73710.0,-2.97,-4.41,-4.49,0,*55
1504566250.88,20462,15.94,73714.8,-2.97,-4.49,-4.61,0,*54
1504566252.1,20463,15.88,73712.0,-2.95,-4.49,-4.77,0,*50
1504566253.32,20464,15.88,73718.0,-2.95,-4.61,-4.77,0,*5D
1504566254.57,20465,15.88,73716.5,-2.95,-4.89,-4.85,0,*57
1504566255.83,20466,15.88,73716.5,-2.95,-5.23,-5.11,0,*59
1504566257.05,20467,15.88,73716.0,-2.95,-5.15,-4.99,0,*5C
1504566258.3,20468,15.88,73716.8,-2.95,-5.27,-5.11,0,*53
1504566259.53,20469,15.88,73712.0,-2.95,-5.51,-5.11,0,*53
1504566260.79,20470,15.88,73712.5,-2.95,-5.81,-5.27,0,*53
1504566262.05,20471,15.94,73712.3,-2.95,-5.93,-5.23,0,*55
1504566263.31,20472,15.94,73714.3,-2.95,-5.65,-5.23,0,*5F
1504566264.53,20473,15.94,73708.3,-2.95,-5.43,-5.11,0,*5B
1504566265.75,20474,15.94,73708.3,-2.91,-5.43,-5.15,0,*5C
1504566266.98,20475,15.88,73706.0,-2.95,-5.35,-5.27,0,*59
1504566268.24,20476,15.88,73704.3,-2.95,-5.23,-5.23,0,*59
1504566269.46,20477,15.88,73704.3,-2.95,-5.27,-5.35,0,*5B
1504566270.71,20478,15.94,73702.0,-2.95,-5.69,-5.65,0,*5B
1504566271.94,20479,15.88,73700.0,-2.95,-5.69,-5.35,0,*5F
1504566273.17,20480,15.88,73704.8,-2.95,-5.69,-5.39,0,*55
1504566274.39,20481,15.88,73706.8,-2.95,-5.77,-5.43,0,*56
1504566275.62,20482,15.88,73702.5,-2.95,-5.89,-5.55,0,*53
1504566276.88,20483,15.94,73710.8,-2.95,-5.93,-5.69,0,*56
1504566278.13,20484,15.88,73710.0,-2.95,-5.81,-5.81,0,*54
1504566279.35,20485,15.88,73704.3,-2.95,-6.01,-5.93,0,*5D
1504566280.58,20486,15.88,73710.5,-2.97,-5.97,-6.35,0,*5F
1504566281.78,20487,15.88,73710.3,-2.95,-6.01,-6.31,0,*54
1504566283.05,20488,15.88,73712.5,-2.97,-6.23,-6.19,0,*53
1504566284.27,20489,15.88,73710.5,-2.97,-6.73,-6.05,0,*5A
1504566285.51,20490,15.88,73710.8,-2.97,-7.27,-6.09,0,*5E
1504566286.76,20491,15.94,73714.3,-2.97,-7.65,-6.05,0,*55
1504566288.02,20492,15.88,73712.5,-2.97,-7.39,-5.81,0,*50
1504566289.25,20493,15.88,73708.5,-2.99,-6.97,-5.97,0,*5D
1504566290.5,20494,15.88,73708.0,-2.97,-6.59,-5.81,0,*51
1504566291.74,20495,15.88,73710.5,-2.99,-6.23,-5.93,0,*50
1504566292.96,20496,15.94,73710.3,-2.97,-5.97,-6.05,0,*5D
1504566294.16,20497,15.94,73710.8,-2.99,-6.05,-6.35,0,*59
1504566295.38,20498,15.94,73712.5,-2.97,-6.05,-6.85,0,*53
1504566296.6,20499,15.88,73716.0,-2.99,-6.05,-7.01,0,*51
1504566297.82,20500,15.88,73716.8,-2.99,-6.39,-7.31,0,*5C
1504566299.04,20501,15.88,73710.8,-2.97,-6.73,-7.19,0,*57
1504566300.31,20502,15.94,73714.0,-2.97,-7.01,-7.65,0,*5B
1504566301.54,20503,15.94,73716.0,-2.99,-7.15,-7.91,0,*5A
1504566302.78,20504,15.88,73716.0,-2.99,-7.27,-7.95,0,*58
1504566304.01,20505,15.94,73718.5,-3.01,-8.29,-8.37,0,*5F
1504566305.26,20506,15.88,73712.0,-3.01,-8.89,-7.99,0,*5D
1504566306.52,20507,15.88,73714.0,-3.01,-9.05,-7.57,0,*5B
1504566307.73,20508,15.94,73714.8,-2.99,-8.85,-7.11,0,*5F
1504566309.0,20509,15.88,73710.3,-3.01,-8.81,-6.63,0,*5E
1504566310.22,20510,15.88,73714.5,-3.01,-7.87,-6.09,0,*53
1504566311.47,20511,15.88,73712.8,-3.01,-7.43,-6.13,0,*51
1504566312.69,20512,15.94,73716.0,-2.99,-6.63,-5.97,0,*5E
1504566313.89,20513,15.88,73712.8,-2.99,-6.51,-6.39,0,*59
1504566315.14,20514,15.94,73718.0,-3.01,-6.01,-6.23,0,*50
1504566316.36,20515,15.88,73714.3,-3.01,-6.13,-6.69,0,*5C
1504566317.59,20516,15.88,73714.0,-3.01,-6.09,-7.19,0,*52
1504566318.81,20517,15.94,73722.5,-3.03,-6.69,-7.99,0,*5F
1504566320.02,20518,15.94,73720.8,-3.03,-7.69,-8.55,0,*5E
1504566321.27,20519,15.88,73720.0,-3.01,-8.67,-9.11,0,*5D
1504566322.52,20520,15.88,73722.0,-3.01,-9.45,-9.31,0,*54
1504566323.76,20521,15.88,73720.3,-3.01,-9.57,-10.05,0,*69
1504566324.97,20522,15.94,73728.3,-3.03,-10.31,-9.71,0,*6B
1504566326.2,20523,15.88,73724.0,-3.01,-10.01,-8.89,0,*6D
1504566327.43,20524,15.94,73722.0,-3.01,-10.57,-8.29,0,*63
1504566328.65,20525,15.88,73718.0,-3.03,-10.05,-7.61,0,*64
1504566329.88,20526,15.88,73718.0,-3.03,-8.89,-6.27,0,*59
1504566331.13,20527,15.88,73714.0,-3.03,-7.61,-5.65,0,*54
1504566332.39,20528,15.88,73714.3,-3.03,-5.85,-4.73,0,*55
1504566333.61,20529,15.88,73708.8,-3.01,-4.99,-4.57,0,*5C
1504566334.86,20530,15.88,73712.0,-3.01,-4.69,-4.65,0,*5A
1504566336.11,20531,15.88,73712.3,-3.01,-4.65,-4.73,0,*50
1504566337.35,20532,15.88,73722.0,-3.03,-4.69,-5.11,0,*58
1504566338.57,20533,15.88,73724.3,-3.01,-4.99,-5.51,0,*50
1504566339.82,20534,15.88,73722.0,-3.03,-5.61,-5.65,0,*54
1504566341.05,20535,15.88,73720.5,-3.03,-6.01,-5.23,0,*52
1504566342.3,20536,15.94,73726.0,-3.01,-5.73,-4.53,0,*53
1504566343.52,20537,15.88,73716.5,-3.03,-4.85,-4.41,0,*5B
1504566344.72,20538,15.88,73718.8,-3.03,-4.57,-4.33,0,*5E
1504566345.91,20539,15.88,73716.5,-3.03,-4.41,-4.09,0,*51
1504566347.12,20540,15.88,73718.5,-3.03,-4.33,-4.21,0,*50
1504566348.35,20541,15.88,73722.8,-3.01,-4.29,-4.09,0,*52
1504566349.58,20542,15.88,73716.8,-3.01,-4.33,-4.29,0,*58
1504566350.81,20543,15.88,73714.0,-3.01,-4.21,-4.21,0,*52
1504566352.04,20544,15.88,73710.3,-3.01,-4.05,-4.05,0,*55
1504566353.27,20545,15.94,73710.3,-3.01,-3.95,-4.05,0,*5A
1504566354.49,20546,15.88,73712.5,-3.01,-4.05,-4.05,0,*57
1504566355.72,20547,15.94,73712.3,-3.01,-4.17,-4.09,0,*59
1504566356.95,20548,15.88,73710.3,-3.01,-4.21,-4.17,0,*5C
1504566358.17,20549,15.94,73718.3,-3.01,-4.17,-4.09,0,*57
1504566359.37,20550,15.88,73718.5,-2.99,-4.05,-3.91,0,*5A
1504566360.59,20551,15.94,73716.8,-3.01,-4.05,-4.05,0,*51
1504566361.82,20552,15.94,73696.5,-3.01,-3.95,-4.05,0,*5C
1504566363.02,20553,15.94,73690.3,-2.99,-3.87,-3.87,0,*53
1504566364.25,20554,15.88,73678.3,-3.01,-3.83,-3.83,0,*54
1504566365.49,20555,15.88,73674.8,-3.01,-3.79,-3.79,0,*55
1504566366.72,20556,15.88,73656.3,-3.01,-3.79,-3.75,0,*5A
1504566367.95,20557,15.88,73714.0,-2.99,-3.71,-3.75,0,*53
1504566369.18,20558,15.88,73682.5,-2.99,-3.71,-3.71,0,*58
1504566370.43,20559,15.88,73674.5,-2.97,-3.75,-3.71,0,*53
1504566371.66,20560,15.88,73686.0,-2.97,-3.75,-3.75,0,*5D
1504566372.89,20561,15.94,73708.5,-2.97,-3.75,-3.75,0,*5C
1504566374.14,20562,15.88,73684.0,-2.97,-3.75,-3.71,0,*5B
1504566375.39,20563,15.94,73698.8,-2.97,-3.71,-3.75,0,*5A
1504566376.64,20564,15.94,73704.8,-2.97,-3.71,-3.75,0,*5D
1504566377.84,20565,15.88,73692.8,-2.99,-3.75,-3.75,0,*56
1504566379.08,20566,15.94,73698.0,-2.97,-3.91,-3.91,0,*5B
1504566380.31,20567,15.94,73706.5,-2.97,-3.79,-3.91,0,*5C
1504566381.56,20568,15.88,73694.3,-2.97,-4.01,-4.13,0,*56
1504566382.79,20569,15.88,73706.8,-2.97,-4.25,-4.29,0,*58
1504566384.01,20570,15.88,73698.8,-2.97,-4.17,-4.37,0,*5E
1504566385.24,20571,15.94,73680.3,-2.97,-4.41,-4.61,0,*5F
1504566386.43,20572,15.88,73682.0,-2.95,-4.49,-4.65,0,*52
1504566387.64,20573,15.88,73686.8,-2.95,-4.57,-4.61,0,*58
1504566388.84,20574,15.88,73690.0,-2.95,-4.57,-4.57,0,*5A
1504566390.04,20575,15.88,73688.5,-2.95,-4.49,-4.57,0,*54
1504566391.28,20576,15.88,73678.0,-2.95,-4.77,-4.85,0,*55
1504566392.52,20577,15.88,73684.5,-2.95,-4.77,-4.73,0,*5D
1504566393.74,20578,15.88,73678.0,-2.95,-4.73,-4.61,0,*55
1504566395.02,20579,15.88,73674.5,-2.97,-4.89,-4.69,0,*5B
1504566396.24,20580,15.88,73678.5,-2.97,-4.65,-4.53,0,*56
1504566397.48,20581,15.88,73678.3,-2.97,-4.69,-4.53,0,*5B
1504566398.68,20582,15.88,73678.5,-2.95,-4.65,-4.61,0,*57
1504566399.89,20583,15.94,73684.5,-2.91,-4.65,-4.61,0,*52
1504566401.09,20584,15.88,73700.3,-2.95,-4.65,-4.65,0,*55
1504566402.31,20585,15.88,73698.0,-2.95,-4.65,-4.73,0,*53
1504566403.55,20586,15.88,73686.5,-2.95,-4.77,-4.77,0,*57
1504566404.77,20587,15.88,73696.3,-2.95,-5.03,-4.99,0,*54
1504566406.03,20588,15.88,73690.3,-2.95,-5.15,-5.03,0,*5E
1504566407.23,20589,15.94,73694.0,-2.95,-5.35,-4.99,0,*5F
1504566408.48,20590,15.94,73688.3,-2.91,-5.27,-4.85,0,*5D
1504566409.73,20591,15.88,73674.8,-2.95,-5.23,-4.73,0,*55
1504566410.96,20592,15.88,73690.3,-2.95,-5.15,-4.57,0,*55
1504566412.18,20593,15.88,73688.8,-2.95,-5.11,-4.49,0,*5F
1504566413.4,20594,15.88,73702.3,-2.91,-4.85,-4.45,0,*5C
1504566414.61,20595,15.88,73702.0,-2.91,-4.77,-4.45,0,*50
1504566415.83,20596,15.88,73696.0,-2.95,-4.89,-4.37,0,*53
1504566417.06,20597,15.88,73682.5,-2.95,-4.77,-4.21,0,*54
1504566418.26,20598,15.88,73692.0,-2.95,-4.57,-4.13,0,*58
1504566419.48,20599,15.88,73712.5,-2.95,-4.49,-4.01,0,*55
1504566420.69,20600,15.94,73716.3,-2.95,-4.37,-4.01,0,*5F
1504566421.89,20601,15.88,73694.3,-2.91,-4.37,-4.09,0,*52
1504566423.12,20602,15.88,73688.8,-2.91,-4.21,-4.01,0,*5E
1504566424.35,20603,15.88,73682.8,-2.91,-4.01,-3.83,0,*50
1504566425.56,20604,15.88,73682.3,-2.91,-3.87,-3.75,0,*57
1504566426.77,20605,15.88,73678.8,-2.91,-3.95,-3.75,0,*55
1504566427.97,20606,15.88,73682.3,-2.91,-3.87,-3.83,0,*5C
1504566429.23,20607,15.94,73688.8,-2.89,-3.71,-3.71,0,*50
1504566430.44,20608,15.88,73686.0,-2.91,-3.75,-3.75,0,*56
1504566431.65,20609,15.88,73698.0,-2.91,-3.75,-3.75,0,*57
1504566432.86,20610,15.88,73692.0,-2.91,-3.75,-3.75,0,*5F
1504566434.13,20611,15.88,73692.5,-2.89,-3.71,-3.71,0,*57
1504566435.35,20612,15.88,73700.0,-2.91,-3.71,-3.75,0,*59
1504566436.59,20613,15.88,73706.0,-2.91,-3.71,-3.71,0,*5C
1504566437.83,20614,15.94,73710.8,-2.91,-3.71,-3.71,0,*5B
1504566439.08,20615,15.88,73712.5,-2.91,-3.71,-3.71,0,*5A
1504566440.32,20616,15.88,73708.8,-2.91,-3.71,-3.67,0,*5E
1504566441.58,20617,15.94,73718.8,-2.89,-3.67,-3.67,0,*51
1504566442.85,20618,15.88,73720.3,-2.89,-3.67,-3.67,0,*5E
1504566444.11,20619,15.88,73720.8,-2.89,-3.67,-3.67,0,*5F
1504566445.35,20620,15.88,73722.8,-2.87,-3.67,-3.67,0,*5B
1504566446.58,20621,15.88,73722.0,-2.89,-3.79,-3.79,0,*54
1504566447.81,20622,15.88,73722.0,-2.89,-3.83,-3.83,0,*57
1504566449.04,20623,15.88,73720.3,-2.89,-3.83,-3.91,0,*55
1504566450.25,20624,15.88,73722.5,-2.87,-3.91,-3.83,0,*5C
1504566451.48,20625,15.88,73722.3,-2.89,-3.91,-3.79,0,*56
1504566452.7,20626,15.88,73714.3,-2.89,-4.05,-4.05,0,*53
1504566453.92,20627,15.88,73710.5,-2.89,-4.05,-3.95,0,*5C
1504566455.15,20628,15.88,73714.3,-2.89,-3.91,-3.83,0,*5E
1504566456.37,20629,15.88,73710.5,-2.87,-3.83,-3.71,0,*5F
1504566457.62,20630,15.88,73702.3,-2.89,-3.79,-3.71,0,*5C
1504566458.87,20631,15.88,73708.5,-2.89,-3.71,-3.79,0,*5D
1504566460.13,20632,15.94,73716.5,-2.89,-3.71,-3.71,0,*56
1504566461.34,20633,15.88,73716.5,-2.87,-3.83,-3.79,0,*5C
1504566462.56,20634,15.88,73718.3,-2.87,-3.83,-3.71,0,*53
1504566463.77,20635,15.88,73722.3,-2.87,-3.79,-3.79,0,*5F
1504566465.01,20636,15.88,73726.8,-2.89,-3.79,-3.71,0,*5A
1504566466.24,20637,15.88,73712.0,-2.87,-3.79,-3.71,0,*55
1504566467.47,20638,15.88,73720.5,-2.89,-3.79,-3.79,0,*5C
1504566468.69,20639,15.88,73718.5,-2.87,-3.79,-3.71,0,*5B
1504566469.94,20640,15.88,73718.3,-2.85,-3.75,-3.67,0,*5C
1504566471.19,20641,15.88,73720.8,-2.85,-3.75,-3.67,0,*5D
1504566472.43,20642,15.88,73708.5,-2.85,-3.79,-3.79,0,*5D
1504566473.64,20643,15.88,73714.5,-2.87,-3.83,-3.91,0,*5D
1504566474.84,20644,15.88,73716.8,-2.87,-3.91,-3.95,0,*5D
1504566476.05,20645,15.88,73716.8,-2.87,-3.91,-4.05,0,*52
1504566477.25,20646,15.88,73718.3,-2.87,-4.17,-3.95,0,*56
1504566478.44,20647,15.88,73716.0,-2.87,-4.33,-4.17,0,*5C
1504566479.64,20648,15.88,73716.3,-2.87,-4.45,-4.29,0,*5F
1504566480.84,20649,15.88,73718.5,-2.87,-4.21,-4.05,0,*52
1504566482.05,20650,15.88,73708.5,-2.87,-4.21,-4.05,0,*5A
1504566483.27,20651,15.88,73706.3,-2.89,-4.05,-3.95,0,*5D
1504566484.46,20652,15.88,73708.0,-2.87,-4.09,-3.95,0,*5C
1504566485.67,20653,15.88,73708.5,-2.87,-3.91,-3.91,0,*5F
1504566486.88,20654,15.88,73710.0,-2.87,-3.91,-3.91,0,*58
1504566488.11,20655,15.88,73704.8,-2.89,-3.83,-3.83,0,*57
1504566489.35,20656,15.88,73704.8,-2.87,-3.71,-3.71,0,*5A
1504566490.6,20657,15.88,73706.8,-2.85,-3.75,-3.67,0,*5A
1504566491.82,20658,15.88,73706.0,-2.87,-3.79,-3.71,0,*5C
1504566493.06,20659,15.88,73704.3,-2.87,-3.71,-3.71,0,*55
1504566494.31,20660,15.88,73702.8,-2.85,-3.67,-3.75,0,*5E
1504566495.52,20661,15.88,73702.3,-2.87,-3.83,-3.95,0,*59
1504566496.73,20662,15.88,73706.5,-2.87,-3.91,-4.05,0,*57
1504566497.93,20663,15.88,73702.0,-2.87,-3.95,-4.17,0,*51
1504566499.15,20664,15.88,73708.5,-2.89,-3.95,-4.09,0,*57
1504566500.35,20665,15.88,73704.5,-2.87,-4.29,-4.41,0,*54
1504566501.55,20666,15.88,73708.0,-2.87,-4.41,-4.53,0,*5A
1504566502.75,20667,15.88,73692.3,-2.87,-4.41,-4.61,0,*5A
1504566504.0,20668,15.88,73680.5,-2.89,-4.45,-4.85,0,*55
1504566505.25,20669,15.88,73690.0,-2.89,-4.33,-5.11,0,*59
1504566506.47,20670,15.88,73692.0,-2.87,-4.61,-5.85,0,*55
1504566507.72,20671,15.88,73694.3,-2.87,-5.19,-7.05,0,*50